User: anonymous   Login
Location: Gleizolles
(44.4833°N, 6.7667°E)
Time: 11:28:53
(UTC+00:00)
Language:

RS-44 - Orbit

View from above orbital plane
View from above orbital plane
View from above satellite
View from above satellite

Ground track
Ground track

The orbit data is extracted from the following two-line orbital elements,

1 44909U 19096E   22337.84570174  .00000028  00000-0  74554-4 0  9993
2 44909  82.5194 117.7508 0216434 283.7099  73.9993 12.79716884137176
Epoch (UTC): 03 December 2022 20:17:48
Eccentricity: 0.0216434
inclination: 82.5194°
perigee height: 1175 km
apogee height: 1510 km
right ascension of ascending node: 117.7508°
argument of perigee: 283.7099°
revolutions per day: 12.79716884
mean anomaly at epoch: 73.9993°
orbit number at epoch: 13717

The dashed part of the orbit path shows where the satellite is in the earth's shadow,  

DLR